FW6138 Weather Reports


Display with metric or nautical units.
time (UTC)temp
F
wind
direction
speed
MPH
gust
MPH
rain 1hr
in
rain 24hr
in
rain mn
in
humidity
%
barometer
mb
20260904190030 60 141 0.0 3.0 0.00 0.02 0.02 79 1016.2
20260904184529 59 180 0.0 0.0 0.00 0.02 0.02 81 1016.4
20260904181532 57 194 0.0 2.0 0.00 0.02 0.02 85 1016.3
20260904180051 56 225 0.0 0.0 0.00 0.02 0.02 86 1016.2
20260904174530 56 251 0.0 1.0 0.00 0.02 0.02 87 1016.3
20260904173036 56 270 0.0 1.0 0.00 0.02 0.02 87 1016.3
20260904171611 56 267 0.0 3.0 0.00 0.02 0.02 88 1016.3
20260904170034 56 270 1.0 4.0 0.00 0.02 0.02 89 1016.1
20260904163108 54 211 0.0 2.0 0.00 0.02 0.02 93 1016.1
20260904161610 54 180 0.0 0.0 0.00 0.02 0.02 95 1016.2
20260904160028 53 180 0.0 0.0 0.00 0.02 0.02 96 1016.2
20260904153029 52 225 0.0 0.0 0.00 0.02 0.02 97 1016.0
20260904151533 51 225 0.0 0.0 0.00 0.02 0.02 97 1015.9
20260904150106 51 225 0.0 0.0 0.00 0.02 0.02 97 1015.9
20260904143104 50 225 0.0 0.0 0.00 0.02 0.02 97 1015.7
20260904141531 50 225 0.0 0.0 0.00 0.02 0.02 97 1015.5
20260904140033 49 225 0.0 0.0 0.01 0.02 0.02 96 1015.2
20260904133032 49 225 0.0 0.0 0.01 0.02 0.02 96 1015.1
20260904131532 49 219 0.0 0.0 0.01 0.02 0.01 96 1014.9
20260904130029 49 202 0.0 0.0 0.00 0.01 0.01 96 1014.8
20260904124531 49 202 0.0 0.0 0.00 0.01 0.01 96 1014.7
20260904123028 49 202 0.0 0.0 0.00 0.01 0.01 96 1014.7
20260904121531 50 202 0.0 0.0 0.00 0.01 0.01 96 1014.6
20260904120033 50 202 0.0 0.0 0.00 0.01 0.01 96 1014.5
20260904114531 50 202 0.0 0.0 0.00 0.01 0.01 96 1014.3
20260904113031 50 202 0.0 0.0 0.00 0.01 0.01 96 1014.2
20260904111606 50 202 0.0 0.0 0.01 0.01 0.01 96 1014.1
20260904110029 50 202 0.0 0.0 0.01 0.01 0.01 96 1014.0
20260904104531 50 202 0.0 1.0 0.01 0.01 0.01 96 1014.0
20260904103030 50 202 0.0 0.0 0.01 0.01 0.00 96 1013.8
20260904101531 50 202 0.0 1.0 0.00 0.00 0.00 96 1013.7
20260904100036 49 210 0.0 2.0 0.00 0.00 0.00 96 1013.5
20260904094528 49 171 0.0 2.0 0.00 0.00 0.00 96 1013.4
20260904093028 49 180 0.0 2.0 0.00 0.00 0.00 95 1013.3
20260904090035 49 180 0.0 0.0 0.00 0.00 0.00 95 1013.3
20260904084537 49 180 0.0 0.0 0.00 0.00 0.00 95 1013.3
20260904083036 49 180 1.0 2.0 0.00 0.00 0.00 95 1013.1
20260904081536 49 180 0.0 0.0 0.00 0.00 0.00 95 1013.1
20260904080039 49 180 0.0 0.0 0.00 0.00 0.00 95 1013.2
20260904074536 50 180 0.0 0.0 0.00 0.00 0.00 95 1013.2
20260904071539 50 180 0.0 0.0 0.00 0.00 0.00 94 1013.1
20260904070038 50 182 1.0 3.0 0.00 0.00 0.00 94 1013.0
20260904064536 50 202 0.0 0.0 0.00 0.00 0.00 94 1013.0
20260904063111 51 202 0.0 0.0 0.00 0.00 0.00 94 1013.0
20260904061536 51 202 0.0 0.0 0.00 0.00 0.00 93 1013.0
20260904060037 51 216 0.0 0.0 0.00 0.00 0.00 93 1012.9
20260904054537 52 196 0.0 0.0 0.00 0.00 0.00 92 1012.9
20260904053031 52 195 0.0 0.0 0.00 0.00 0.00 92 1012.8
20260904051530 52 202 0.0 0.0 0.00 0.00 0.00 92 1012.9
20260904050035 52 192 0.0 0.0 0.00 0.00 0.00 91 1012.9
20260904044535 53 180 0.0 0.0 0.00 0.01 0.00 91 1013.0
20260904043031 53 181 0.0 3.0 0.00 0.01 0.00 90 1012.9
20260904041609 53 218 0.0 3.0 0.00 0.01 0.00 90 1013.0
20260904040036 53 212 0.0 1.0 0.00 0.01 0.00 89 1013.0
20260904034647 53 246 0.0 3.0 0.00 0.01 0.00 88 1012.8
20260904033028 54 325 0.0 0.0 0.00 0.01 0.00 86 1012.7
20260904031610 55 340 0.0 3.0 0.00 0.01 0.00 84 1012.5
20260904030030 56 329 0.0 6.0 0.00 0.01 0.00 83 1012.5
20260904024530 56 355 2.0 5.0 0.00 0.01 0.00 83 1012.4
20260904023029 57 325 1.0 4.0 0.00 0.01 0.00 82 1012.4
20260904021530 57 2 2.0 7.0 0.00 0.04 0.00 81 1012.2
20260904020030 57 351 1.0 3.0 0.00 0.12 0.00 79 1012.2
20260904014530 58 318 0.0 6.0 0.00 0.12 0.00 78 1012.1
20260904013037 58 308 4.0 9.0 0.00 0.12 0.00 78 1012.1
20260904011537 59 306 3.0 6.0 0.00 0.12 0.00 76 1012.0
20260904004536 62 332 3.0 8.0 0.00 0.14 0.00 73 1011.8
20260904003032 62 359 1.0 6.0 0.00 0.16 0.00 76 1011.8
20260904001528 61 27 2.0 7.0 0.00 0.16 0.00 80 1011.9
20260904000033 57 24 1.0 7.0 0.00 0.18 0.00 83 1012.1
20260903234529 57 228 1.0 7.0 0.00 0.18 0.00 82 1012.2
20260903233032 58 294 4.0 11.0 0.00 0.18 0.00 78 1012.0
20260903230038 60 308 7.0 16.0 0.00 0.20 0.00 73 1012.1
20260903224536 61 325 5.0 11.0 0.00 0.20 0.00 72 1012.1
20260903221538 63 306 5.0 12.0 0.00 0.20 0.00 69 1011.9
20260903220032 65 304 7.0 16.0 0.00 0.21 0.00 63 1011.8
20260903214535 68 298 6.0 15.0 0.00 0.22 0.00 58 1011.5
20260903213038 65 306 3.0 9.0 0.00 0.23 0.00 61 1011.6
20260903211529 66 295 2.0 4.0 0.00 0.24 0.00 61 1011.7
20260903210037 67 305 2.0 4.0 0.00 0.24 0.00 60 1011.7
20260903204529 68 312 3.0 6.0 0.00 0.25 0.00 60 1011.7
20260903203036 67 336 2.0 8.0 0.00 0.26 0.00 63 1011.9
20260903201531 65 355 2.0 6.0 0.00 0.27 0.00 67 1012.0
20260903200036 64 321 1.0 4.0 0.00 0.27 0.00 71 1012.2
20260903194532 64 305 2.0 5.0 0.00 0.28 0.00 76 1012.4
20260903193038 63 263 1.0 4.0 0.00 0.28 0.00 79 1012.7
20260903191537 60 98 0.0 3.0 0.00 0.30 0.00 87 1013.2